Hays, KS

6:55 AM CST on January 18, 2018 (GMT -0600)
Hays Regional

Weather History for KHYS - January, 2014

Change the Weather History Date:

Friday, January 24, 2014

  Actual Average Record
Temperature  
Mean Temperature 34 °F -  
Max Temperature 60 °F 39 °F 64 °F (2005)
Min Temperature 8 °F 17 °F 1 °F (2008)
Degree Days  
Heating Degree Days 31    
Moisture  
Dew Point 13 °F    
Average Humidity 49    
Maximum Humidity 73    
Minimum Humidity 24    
Precipitation  
Precipitation 0.00 in - - ()
Sea Level Pressure  
Sea Level Pressure 30.15 in    
Wind  
Wind Speed 13 mph (West)    
Max Wind Speed 23 mph    
Max Gust Speed 30 mph    
Visibility 10 miles    
Events      
Averages and records for this station are not official NWS values.
T = Trace of Precipitation, MM = Missing Value Source: NWS Daily Summary

Daily Weather History Graph

Daily Weather History Graph

Search for Another Location

Airport or City:

Trip Planner

Search our weather history database for the weather conditions in past years. The results will help you decide how hot, cold, wet, or windy it might be!

Date:

Astronomy

Jan. 24, 2014 Rise Set
Actual Time 7:49 AM CST 5:49 PM CST
Civil Twilight 7:20 AM CST 6:18 PM CST
Nautical Twilight 6:48 AM CST 6:50 PM CST
Astronomical Twilight 6:16 AM CST 7:21 PM CST
Moon 1:19 AM CST (1/24) 12:08 PM CST (1/24)
Length of Visible Light 10h 57m
Length of Day
10h 00m
Last Quarter, 44% of the Moon is Illuminated
Jan 24
Last Quarter
Jan 30
New
Feb 6
First Quarter
Feb 14
Full
Feb 22
Last Quarter

Hourly Weather History & Observations

Time (CST) Temp. Windchill Dew Point Humidity Pressure Visibility Wind Dir Wind Speed Gust Speed Precip Events Conditions
12:15 AM 8.6 °F -8.9 °F -0.4 °F 67% 30.53 in 10.0 mi SW 16.1 mph - N/A   Clear
12:35 AM 8.6 °F -4.7 °F 1.4 °F 73% 30.52 in 10.0 mi SW 9.2 mph - N/A   Clear
12:55 AM 10.4 °F -4.1 °F 1.4 °F 67% 30.50 in 10.0 mi SW 11.5 mph - N/A   Clear
1:15 AM 10.4 °F -1.5 °F -0.4 °F 62% 30.50 in 10.0 mi WSW 8.1 mph - N/A   Clear
1:35 AM 8.6 °F -6.3 °F -0.4 °F 67% 30.48 in 10.0 mi SW 11.5 mph - N/A   Clear
1:55 AM 8.6 °F -4.7 °F -0.4 °F 67% 30.46 in 10.0 mi WSW 9.2 mph - N/A   Clear
2:15 AM 8.6 °F -7.0 °F -0.4 °F 67% 30.44 in 10.0 mi SW 12.7 mph 19.6 mph N/A   Clear
2:35 AM 8.6 °F -7.0 °F -0.4 °F 67% 30.43 in 10.0 mi SW 12.7 mph - N/A   Clear
2:55 AM 10.4 °F -4.8 °F 1.4 °F 67% 30.43 in 10.0 mi WSW 12.7 mph - N/A   Clear
3:15 AM 8.6 °F -8.3 °F 1.4 °F 73% 30.42 in 10.0 mi SW 15.0 mph - N/A   Clear
3:35 AM 10.4 °F -5.4 °F 1.4 °F 67% 30.40 in 10.0 mi SW 13.8 mph - N/A   Clear
3:55 AM 10.4 °F -4.1 °F 1.4 °F 67% 30.39 in 10.0 mi WSW 11.5 mph 18.4 mph N/A   Clear
4:15 AM 10.4 °F -1.5 °F 1.4 °F 67% 30.39 in 10.0 mi WSW 8.1 mph - N/A   Clear
4:35 AM 10.4 °F -5.4 °F 1.4 °F 67% 30.38 in 10.0 mi SW 13.8 mph - N/A   Clear
4:55 AM 10.4 °F -4.1 °F 3.2 °F 73% 30.36 in 10.0 mi SW 11.5 mph - N/A   Clear
5:15 AM 10.4 °F -2.4 °F 3.2 °F 73% 30.34 in 10.0 mi SW 9.2 mph - N/A   Clear
5:35 AM 10.4 °F -3.3 °F 1.4 °F 67% 30.32 in 10.0 mi SW 10.4 mph - N/A   Clear
5:55 AM 10.4 °F -4.1 °F 3.2 °F 73% 30.29 in 10.0 mi SSW 11.5 mph 16.1 mph N/A   Clear
6:15 AM 10.4 °F -0.4 °F 3.2 °F 73% 30.29 in 10.0 mi WSW 6.9 mph - N/A   Clear
6:35 AM 10.4 °F -2.4 °F 3.2 °F 73% 30.27 in 10.0 mi WSW 9.2 mph - N/A   Clear
6:55 AM 10.4 °F -4.1 °F 3.2 °F 73% 30.26 in 10.0 mi SW 11.5 mph - N/A   Clear
7:15 AM 10.4 °F -4.8 °F 3.2 °F 73% 30.25 in 10.0 mi SW 12.7 mph - N/A   Clear
7:35 AM 10.4 °F -6.0 °F 3.2 °F 73% 30.24 in 10.0 mi SW 15.0 mph - N/A   Clear
7:55 AM 10.4 °F -5.4 °F 3.2 °F 73% 30.24 in 10.0 mi SW 13.8 mph - N/A   Clear
8:15 AM 12.2 °F -1.8 °F 3.2 °F 67% 30.22 in 10.0 mi SW 11.5 mph - N/A   Clear
8:35 AM 12.2 °F -3.1 °F 3.2 °F 67% 30.21 in 10.0 mi SW 13.8 mph - N/A   Clear
8:55 AM 14.0 °F -2.5 °F 6.8 °F 73% 30.19 in 10.0 mi SW 17.3 mph - N/A   Clear
9:15 AM 17.6 °F 4.3 °F 8.6 °F 68% 30.19 in 10.0 mi SW 12.7 mph - N/A   Clear
9:35 AM 19.4 °F 8.6 °F 8.6 °F 63% 30.19 in 10.0 mi WSW 9.2 mph - N/A   Clear
9:55 AM 24.8 °F 12.4 °F 12.2 °F 59% 30.17 in 10.0 mi WSW 15.0 mph - N/A   Clear
10:15 AM 30.2 °F 18.5 °F 14.0 °F 51% 30.16 in 10.0 mi West 17.3 mph - N/A   Clear
10:35 AM 33.8 °F 24.3 °F 15.8 °F 48% 30.16 in 10.0 mi West 13.8 mph - N/A   Clear
10:55 AM 37.4 °F 27.8 °F 15.8 °F 41% 30.16 in 10.0 mi West 17.3 mph - N/A   Clear
11:15 AM 41.0 °F 33.5 °F 17.6 °F 39% 30.15 in 10.0 mi West 13.8 mph - N/A   Partly Cloudy
11:35 AM 44.6 °F 37.4 °F 17.6 °F 34% 30.14 in 10.0 mi WNW 16.1 mph 19.6 mph N/A   Scattered Clouds
11:55 AM 46.4 °F 40.7 °F 17.6 °F 32% 30.12 in 10.0 mi WNW 12.7 mph - N/A   Mostly Cloudy
12:15 PM 51.8 °F - 17.6 °F 26% 30.10 in 10.0 mi WNW 11.5 mph - N/A   Mostly Cloudy
12:35 PM 51.8 °F - 17.6 °F 26% 30.09 in 10.0 mi NW 19.6 mph 26.5 mph N/A   Overcast
12:55 PM 53.6 °F - 17.6 °F 24% 30.08 in 10.0 mi NW 21.9 mph - N/A   Overcast
1:15 PM 53.6 °F - 17.6 °F 24% 30.06 in 10.0 mi NW 17.3 mph - N/A   Mostly Cloudy
1:35 PM 55.4 °F - 19.4 °F 25% 30.04 in 10.0 mi NW 16.1 mph 21.9 mph N/A   Partly Cloudy
1:55 PM 55.4 °F - 21.2 °F 26% 30.03 in 10.0 mi NW 20.7 mph 25.3 mph N/A   Clear
2:15 PM 57.2 °F - 21.2 °F 25% 30.02 in 10.0 mi WNW 19.6 mph 28.8 mph N/A   Clear
2:35 PM 57.2 °F - 21.2 °F 25% 30.00 in 10.0 mi WNW 20.7 mph 27.6 mph N/A   Clear
2:55 PM 59.0 °F - 23.0 °F 25% 30.00 in 10.0 mi NW 20.7 mph 29.9 mph N/A   Clear
3:15 PM 59.0 °F - 23.0 °F 25% 29.99 in 10.0 mi NW 19.6 mph 24.2 mph N/A   Clear
3:35 PM 59.0 °F - 24.8 °F 27% 29.99 in 10.0 mi NW 23.0 mph 27.6 mph N/A   Clear
3:55 PM 59.0 °F - 23.0 °F 25% 29.98 in 10.0 mi NW 18.4 mph 23.0 mph N/A   Clear
4:15 PM 60.8 °F - 24.8 °F 25% 29.98 in 10.0 mi NW 18.4 mph - N/A   Clear
4:35 PM 57.2 °F - 24.8 °F 29% 29.98 in 10.0 mi NW 21.9 mph - N/A   Clear
4:55 PM 57.2 °F - 23.0 °F 27% 29.97 in 10.0 mi NW 16.1 mph - N/A   Clear
5:15 PM 57.2 °F - 21.2 °F 25% 29.97 in 10.0 mi WNW 13.8 mph - N/A   Clear
5:35 PM 55.4 °F - 21.2 °F 26% 29.98 in 10.0 mi NW 11.5 mph - N/A   Clear
5:55 PM 53.6 °F - 21.2 °F 28% 29.97 in 10.0 mi WNW 8.1 mph - N/A   Clear
6:15 PM 51.8 °F - 21.2 °F 30% 29.98 in 10.0 mi West 8.1 mph - N/A   Clear
6:35 PM 46.4 °F 42.4 °F 21.2 °F 37% 29.98 in 10.0 mi West 8.1 mph - N/A   Clear
6:55 PM 44.6 °F 40.2 °F 21.2 °F 39% 29.97 in 10.0 mi West 8.1 mph - N/A   Clear
7:15 PM 48.2 °F - 21.2 °F 34% 29.97 in 10.0 mi West 12.7 mph - N/A   Clear
7:35 PM 48.2 °F - 21.2 °F 34% 29.97 in 10.0 mi West 15.0 mph - N/A   Clear
7:55 PM 48.2 °F - 19.4 °F 32% 29.97 in 10.0 mi West 10.4 mph - N/A   Clear
8:15 PM 44.6 °F 38.8 °F 19.4 °F 37% 29.97 in 10.0 mi West 11.5 mph - N/A   Clear
8:35 PM 42.8 °F 37.0 °F 19.4 °F 39% 29.97 in 10.0 mi West 10.4 mph - N/A   Clear
8:55 PM 42.8 °F 36.2 °F 21.2 °F 42% 29.96 in 10.0 mi West 12.7 mph - N/A   Clear
9:15 PM 42.8 °F 35.8 °F 21.2 °F 42% 29.96 in 10.0 mi West 13.8 mph - N/A   Clear
9:35 PM 42.8 °F 36.6 °F 21.2 °F 42% 29.96 in 10.0 mi West 11.5 mph - N/A   Clear
9:55 PM 41.0 °F 34.7 °F 21.2 °F 45% 29.95 in 10.0 mi West 10.4 mph - N/A   Clear
10:15 PM 39.2 °F 32.0 °F 21.2 °F 49% 29.95 in 10.0 mi West 11.5 mph - N/A   Clear
10:35 PM 41.0 °F 33.9 °F 23.0 °F 49% 29.95 in 10.0 mi West 12.7 mph - N/A   Clear
10:55 PM 41.0 °F 34.3 °F 23.0 °F 49% 29.95 in 10.0 mi West 11.5 mph - N/A   Clear
11:15 PM 41.0 °F 34.3 °F 23.0 °F 49% 29.96 in 10.0 mi West 11.5 mph - N/A   Clear
11:35 PM 39.2 °F 32.5 °F 21.2 °F 49% 29.97 in 10.0 mi WSW 10.4 mph - N/A   Clear
11:55 PM 37.4 °F 29.8 °F 21.2 °F 52% 29.97 in 10.0 mi WNW 11.5 mph - N/A   Clear